Back to catalog

STARLINK-31315

AliveCommunicationsVLEO
NORAD 58884·PAYLOAD·🇺🇸 United States

Launched Jan 29, 2024 from Vandenberg Space Force Base

Loading…

Next Passes (next 24 hours)

TLE

FreshSource: CelesTrak SupGP

Epoch: Sep 14, 2026, 21:11 UTC

1 58884C 24020J   26257.88312500 -.00067484  00000+0 -19936-2 0  2577
2 58884  53.1578 135.8746 0001263  89.6299  17.5242 15.34427772    17

Track STARLINK-31315 in real time with AllMySat

Download on the App Store